[Date Prev][Date Next][Thread Prev][Thread Next] - [Date Index][Thread Index][Author Index]

2 Line ISS Keps 10-5



ISS
1 25544U 98067A   03278.21708131  .00024987  00000-0  28478-3 0  5935
2 25544  51.6305 185.7860 0006469   6.9977 149.8701 15.62066605278194


----
Via the sarex mailing list at AMSAT.ORG courtesy of AMSAT-NA.
To unsubscribe, send "unsubscribe sarex" to Majordomo@amsat.org



AMSAT Top AMSAT Home